Change the Weather History Date:

Monday, April 29, 2013

  Actual Average (KMSP) Record (KMSP)
Temperature  
Mean Temperature 63 °F 54 °F  
Max Temperature 75 °F 64 °F 92 °F (1952)
Min Temperature 51 °F 43 °F 22 °F (1958)
Degree Days  
Heating Degree Days 2 12  
Month to date heating degree days 520  
Since 1 July heating degree days 7308  
Cooling Degree Days 0 0  
Month to date cooling degree days 0  
Year to date cooling degree days 0  
Growing Degree Days 13 (Base 50)    
Moisture  
Dew Point 48 °F    
Average Humidity 60    
Maximum Humidity 97    
Minimum Humidity 35    
Precipitation  
Precipitation 0.00 in 0.11 in 1.30 in (1991)
Month to date precipitation 2.55  
Year to date precipitation 6.11  
Snow  
Snow 0.00 in 0.10 in 6.60 in (1984)
Month to date snowfall 2.4  
Since 1 July snowfall 54.4  
Snow Depth -    
Sea Level Pressure  
Sea Level Pressure 29.71 in    
Wind  
Wind Speed 4 mph (ESE)    
Max Wind Speed 12 mph    
Max Gust Speed 18 mph    
Visibility 10 miles    
Events      
T = Trace of Precipitation, MM = Missing Value Source: NWS Daily Summary

Daily Weather History Graph

Daily Weather History Graph

Search for Another Location

Airport or City:

Trip Planner

Search our weather history database for the weather conditions in past years. The results will help you decide how hot, cold, wet, or windy it might be!

Date:

Astronomy

Apr. 29, 2013 Rise Set
Actual Time 6:04 AM CDT 8:15 PM CDT
Civil Twilight 5:32 AM CDT 8:47 PM CDT
Nautical Twilight 4:52 AM CDT 9:27 PM CDT
Astronomical Twilight 4:08 AM CDT 10:11 PM CDT
Moon No Moon Rise 9:21 AM CDT (4/29)
Length of Visible Light 15h 15m
Length of Day
14h 10m
Waning Gibbous, 80% of the Moon is Illuminated
Apr 29
Waning Gibbous
May 2
Last Quarter
May 9
New
May 17
First Quarter
May 24
Full

Hourly Weather History & Observations

Time (CDT) Temp. Dew Point Humidity Pressure Visibility Wind Dir Wind Speed Gust Speed Precip Events Conditions
12:12 AM 56.8 °F 54.5 °F 92% 29.75 in 10.0 mi Calm Calm - N/A   Clear
12:33 AM 55.8 °F 53.8 °F 93% 29.75 in 10.0 mi Calm Calm - N/A   Clear
12:53 AM 55.9 °F 53.6 °F 92% 29.76 in 10.0 mi Calm Calm - N/A   Clear
1:13 AM 55.4 °F 52.7 °F 91% 29.77 in 10.0 mi WNW 3.5 mph - N/A   Scattered Clouds
1:33 AM 55.8 °F 52.3 °F 88% 29.78 in 10.0 mi NW 4.6 mph - N/A   Scattered Clouds
1:53 AM 56.3 °F 52.5 °F 87% 29.78 in 10.0 mi West 3.5 mph - N/A   Overcast
2:13 AM 56.1 °F 52.5 °F 88% 29.78 in 10.0 mi Calm Calm - N/A   Overcast
2:33 AM 55.8 °F 53.1 °F 91% 29.78 in 10.0 mi Calm Calm - N/A   Scattered Clouds
2:53 AM 54.9 °F 53.1 °F 94% 29.78 in 7.0 mi Calm Calm - N/A   Clear
3:13 AM 54.3 °F 52.9 °F 95% 29.78 in 5.0 mi Calm Calm - N/A   Clear
3:33 AM 53.2 °F 52.2 °F 96% 29.79 in 1.5 mi Calm Calm - N/A   Mist
3:53 AM 52.7 °F 51.8 °F 97% 29.79 in 2.5 mi Calm Calm - N/A   Clear
4:12 AM 52.9 °F 52.0 °F 97% 29.80 in 7.0 mi NNW 4.6 mph - N/A   Clear
4:33 AM 54.9 °F 48.2 °F 78% 29.80 in 10.0 mi North 5.8 mph - N/A   Clear
4:53 AM 54.5 °F 47.8 °F 78% 29.79 in 10.0 mi North 5.8 mph - N/A   Clear
5:13 AM 53.8 °F 45.5 °F 74% 29.80 in 10.0 mi North 6.9 mph - N/A   Clear
5:33 AM 53.2 °F 44.6 °F 72% 29.80 in 10.0 mi North 8.1 mph - N/A   Clear
5:53 AM 52.3 °F 43.5 °F 72% 29.80 in 10.0 mi North 8.1 mph - N/A   Clear
6:13 AM 51.6 °F 42.4 °F 71% 29.80 in 10.0 mi North 10.4 mph - N/A   Clear
6:33 AM 51.1 °F 41.2 °F 69% 29.80 in 10.0 mi North 8.1 mph - N/A   Clear
6:53 AM 51.1 °F 40.6 °F 67% 29.80 in 10.0 mi North 8.1 mph - N/A   Clear
7:13 AM 51.1 °F 39.2 °F 64% 29.81 in 10.0 mi North 6.9 mph - N/A   Clear
7:33 AM 51.8 °F 39.0 °F 62% 29.81 in 10.0 mi North 6.9 mph - N/A   Clear
7:53 AM 52.2 °F 37.9 °F 58% 29.81 in 10.0 mi North 5.8 mph - N/A   Clear
8:13 AM 52.7 °F 37.4 °F 56% 29.81 in 10.0 mi North 8.1 mph - N/A   Clear
8:32 AM 53.6 °F 37.2 °F 54% 29.81 in 10.0 mi North 8.1 mph - N/A   Clear
8:53 AM 54.1 °F 37.0 °F 52% 29.80 in 10.0 mi NNE 6.9 mph - N/A   Clear
9:12 AM 54.9 °F 36.9 °F 51% 29.80 in 10.0 mi North 6.9 mph - N/A   Clear
9:33 AM 55.6 °F 37.2 °F 50% 29.79 in 10.0 mi North 8.1 mph - N/A   Clear
9:53 AM 56.1 °F 37.0 °F 49% 29.79 in 10.0 mi North 3.5 mph - N/A   Clear
10:13 AM 57.9 °F 38.1 °F 48% 29.79 in 10.0 mi NE 3.5 mph - N/A   Clear
10:33 AM 58.5 °F 38.8 °F 48% 29.78 in 10.0 mi Calm Calm - N/A   Clear
10:53 AM 60.4 °F 40.5 °F 48% 29.77 in 10.0 mi East 3.5 mph - N/A   Clear
11:13 AM 61.7 °F 41.4 °F 47% 29.77 in 10.0 mi Calm Calm - N/A   Clear
11:33 AM 63.7 °F 43.7 °F 48% 29.76 in 10.0 mi SE 3.5 mph - N/A   Clear
11:53 AM 65.1 °F 43.9 °F 46% 29.75 in 10.0 mi Calm Calm - N/A   Clear
12:13 PM 66.0 °F 44.6 °F 46% 29.75 in 10.0 mi SSW 5.8 mph - N/A   Clear
12:33 PM 66.9 °F 44.6 °F 45% 29.74 in 10.0 mi East 3.5 mph - N/A   Clear
12:52 PM 67.8 °F 44.2 °F 43% 29.73 in 10.0 mi ESE 3.5 mph - N/A   Clear
1:13 PM 68.0 °F 44.8 °F 43% 29.72 in 10.0 mi South 3.5 mph - N/A   Clear
1:33 PM 69.1 °F 46.6 °F 45% 29.71 in 10.0 mi SSE 5.8 mph - N/A   Clear
1:53 PM 69.6 °F 45.0 °F 41% 29.70 in 10.0 mi SE 4.6 mph - N/A   Clear
2:13 PM 70.0 °F 44.8 °F 40% 29.70 in 10.0 mi East 5.8 mph - N/A   Clear
2:33 PM - - N/A% - - North - - N/A   Unknown
2:54 PM 72.3 °F 45.3 °F 38% 29.68 in 10.0 mi South 6.9 mph - N/A   Unknown
3:14 PM 73.9 °F 44.6 °F 35% 29.67 in 10.0 mi East 8.1 mph - N/A   Clear
3:34 PM 74.3 °F 47.5 °F 39% 29.66 in 10.0 mi SSE 8.1 mph - N/A   Clear
3:54 PM 73.6 °F 47.8 °F 40% 29.65 in 10.0 mi SSE 8.1 mph - N/A   Clear
4:14 PM 74.1 °F 45.9 °F 36% 29.64 in 10.0 mi SSE 8.1 mph - N/A   Clear
4:34 PM 74.3 °F 46.6 °F 37% 29.64 in 10.0 mi SSE 5.8 mph - N/A   Clear
4:54 PM 74.8 °F 46.8 °F 37% 29.64 in 10.0 mi SSE 5.8 mph 18.4 mph N/A   Clear
5:14 PM 74.8 °F 48.7 °F 40% 29.63 in 10.0 mi South 11.5 mph - N/A   Scattered Clouds
5:34 PM 74.3 °F 48.6 °F 40% 29.62 in 10.0 mi SSE 4.6 mph - N/A   Clear
5:54 PM 74.7 °F 49.3 °F 41% 29.62 in 10.0 mi South 5.8 mph - N/A   Scattered Clouds
6:14 PM 75.2 °F 49.3 °F 40% 29.61 in 10.0 mi South 8.1 mph - N/A   Scattered Clouds
6:34 PM 75.6 °F 50.5 °F 41% 29.60 in 10.0 mi SE 6.9 mph - N/A   Mostly Cloudy
6:54 PM 75.2 °F 50.9 °F 42% 29.60 in 10.0 mi SSE 6.9 mph - N/A   Mostly Cloudy
7:14 PM 74.5 °F 51.8 °F 45% 29.59 in 10.0 mi SSE 5.8 mph - N/A   Mostly Cloudy
7:34 PM 73.8 °F 52.7 °F 48% 29.59 in 10.0 mi SSE 4.6 mph - N/A   Mostly Cloudy
7:54 PM 73.2 °F 53.2 °F 49% 29.59 in 10.0 mi SE 5.8 mph - N/A   Mostly Cloudy
8:14 PM 72.5 °F 54.1 °F 52% 29.59 in 10.0 mi SSE 4.6 mph - N/A   Scattered Clouds
8:34 PM 72.1 °F 55.2 °F 55% 29.60 in 10.0 mi SSE 6.9 mph - N/A   Scattered Clouds
8:54 PM 71.2 °F 55.8 °F 58% 29.60 in 10.0 mi SSE 5.8 mph - N/A   Clear
9:14 PM 69.8 °F 56.1 °F 62% 29.60 in 10.0 mi SSE 5.8 mph - N/A   Clear
9:34 PM 69.3 °F 56.3 °F 63% 29.60 in 10.0 mi SSE 6.9 mph - N/A   Clear
9:54 PM 68.5 °F 56.3 °F 65% 29.60 in 10.0 mi SSE 5.8 mph - N/A   Clear
10:34 PM 67.3 °F 55.9 °F 67% 29.58 in 10.0 mi SSE 5.8 mph - N/A   Clear
10:54 PM 67.1 °F 55.8 °F 67% 29.58 in 10.0 mi SSE 5.8 mph - N/A   Clear
11:14 PM 66.6 °F 55.6 °F 68% 29.58 in 10.0 mi SSE 5.8 mph - N/A   Clear
11:34 PM 65.5 °F 55.6 °F 70% 29.57 in 10.0 mi SE 4.6 mph - N/A   Clear
11:54 PM 65.3 °F 55.6 °F 71% 29.56 in 10.0 mi SSE 5.8 mph - N/A   Clear